CZ-6A DEB, 56272

Orbit data source: Space-Track

CZ-6A DEB, 56272 is space debris in SSO originally from a launch on Fri, 11 Nov 2022 UTC launched from the Taiyaun Space Center, China (TSC). Debris objects in space refer to the collection of defunct objects orbiting the Earth. Examples of debris include non-operational satellites, rocket bodies, and fragments generated from explosions, collisions, or faulty payload assembly.

Loading next visibility...
Identifier
56272, 2022-151ACQ
Orbit
SSO
Country
Flag of CNCN / PRC
Related business
Manufacturer
SAST
Mission
Spacecraft
Bus & Motor
Unknown
Mass
Unknown
Launch date (UTC)
2022-11-11 (3 years ago)
Launch vehicle
Unknown
Launch site
Taiyaun Space Center, China (TSC)
Object type
Payload
Rocket body
Debris
Shape & HBR
Unknown shape, 0.1 m
Radar Cross Section
Small (<0.1 m²)

Expand to show TLE details & history
Last TLE update: 2 days ago

TLE from 2 days ago
0 CZ-6A DEB
1 56272U 22151ACQ 25348.49812738  .00005506  00000-0  20378-2 0  9995
2 56272  98.7700   6.9449 0013231  65.0421 295.2135 14.32685511140924
Epoch: 2025-12-14T11:57Z
TLE epoch observation values (Epoch: 2025-12-14T11:57:18.205Z)
Latitude
-0.00007°
Longitude
104.20887°
Altitude
781.672 km
Speed
7.465 km/s
True Right ascension
00h 27m 46s
True Declination
0° 00' 00"
Sunlit
Object was in daylight at epoch
Visualization orbit readout
Latitude
Unknown
Longitude
Unknown
Altitude
Unknown
Speed
Unknown
Apparent Right ascension
Unknown
Apparent Declination
Unknown
Sunlit
N/A
Visualization observer readout
Local Sidereal Time
22:51:23
Azimuth
Unknown
Elevation
Unknown
Doppler factor
Unknown
Orbital elements
Apogee altitude
789.384 km
Perigee altitude
770.442 km
Semi-major axis
7,158.05 km
Eccentricity
0.00132
Inclination
98.77°
RAAN
6.9449°
Arg. of periapsis
65.0421°
True anomaly
295.07623°
Mean anomaly
295.2135°
Eccentric anomaly
295.14488°
Mean motion
3.58386 °/min
Orbital period
100.45 mins
BSTAR
0.0020378
Loading maneuver chart data...
Computing Atmospheric mass density...
Loading historical data...
Loading historical data...
Loading historical data...
Loading historical data...
Loading historical data...
Loading historical data...
Loading historical data...

Documentation

Showing up to 5 results
|